Terug naar catalogus

STARLINK-6203

ActiefCommunicatieVLEO
NORAD 56899·PAYLOAD·🇺🇸 United States

Gelanceerd Jun 12, 2023 vanaf Cape Canaveral Space Force Station

Loading…

Volgende Passages (komende 24 uur)

TLE

VersSource: CelesTrak SupGP

Epoch: Sep 15, 2026, 03:16 UTC

1 56899C 23083Z   26258.13659722 -.00006244  00000+0 -22630-3 0  2582
2 56899  43.0004  91.5542 0001110 267.4139 240.1461 15.27560616    19

Volg STARLINK-6203 in realtime met AllMySat

Download on the App Store